Location: Highland Meadows Observing Site
(48.4428°N, 114.5461°W)
Time: 17:46:27
(UTC-07:00)

Amateur Radio Satellites - All Passes

Search period start: 05 December 2016 17:16
Search period end: 06 December 2016 17:16
Location: Highland Meadows Observing Site, 48.4428°N, 114.5461°W

Satellite Date Start Highest point End Downlink Frequencies (MHz)
Time Altitude Azimuth
GOMX 1 05 Dec 17:26:28 17:31:03 75° 75° (ENE) 17:36:03 467.674
CINEMA 3 05 Dec 17:27:31 17:29:51 13° 55° (NE) 17:32:12 145.822/145.860
Cosmos 2491 05 Dec 17:31:20 17:39:23 39° 67° (ENE) 17:47:24 435.465 / 435.565
NOAA 15 05 Dec 17:35:49 17:40:59 65° 71° (ENE) 17:46:12 137.62
Cubesat XI-IV 05 Dec 17:36:55 17:42:12 60° 70° (ENE) 17:47:30 437.490
DOVE 4 05 Dec 17:39:32 17:44:11 47° 69° (ENE) 17:49:06 437.250
AO-7 05 Dec 17:41:11 17:44:36 13° 277° (W) 17:48:03 29.400- 29.500
MOZHAYETS 4 05 Dec 17:42:22 17:45:56 23° 297° (WNW) 17:49:30
CUBESAT XI-V 05 Dec 17:42:40 17:47:20 72° 102° (ESE) 17:52:00 437.345
RS-15 05 Dec 17:42:47 17:54:47 60° 244° (WSW) 18:06:25 29.354- 29.394
BRITE-PL 05 Dec 17:49:11 17:53:01 30° 267° (W) 17:57:06 437.365/2234.400
CANX-2 05 Dec 18:01:35 18:03:56 15° 60° (ENE) 18:06:16 2200.000
LilacSat-2 05 Dec 18:02:25 18:06:15 78° 256° (WSW) 18:10:08 437.200
YUBILEINY 05 Dec 18:06:13 18:12:18 22° 76° (ENE) 18:18:24 435.215
AIST 2 05 Dec 18:14:16 18:17:44 25° 244° (WSW) 18:21:10 435.215
KKS-1 05 Dec 18:16:10 18:19:45 24° 298° (WNW) 18:23:19 437.445
STARS 05 Dec 18:23:07 18:27:12 37° 293° (WNW) 18:31:15 437.465
SEEDS 05 Dec 18:27:45 18:30:19 16° 61° (ENE) 18:32:54 437.485
HO-68 05 Dec 18:33:35 18:40:21 48° 62° (ENE) 18:47:11 435.675
HORYU 2 05 Dec 18:34:11 18:36:29 14° 271° (W) 18:38:45 437.375
COMPASS 1 05 Dec 18:39:24 18:41:42 15° 60° (ENE) 18:43:59 437.405
ISS 05 Dec 18:44:10 18:47:28 75° 341° (NNW) 18:50:47 145.825
CUTE-I 05 Dec 18:51:41 18:56:35 35° 264° (W) 19:01:30 437.470
O/OREOS (USA 219) 05 Dec 18:53:02 18:55:31 14° 317° (NW) 18:58:02 437.305
PCSat 05 Dec 18:55:55 18:59:54 20° 31° (NNE) 19:03:51 145.827
NOAA 18 05 Dec 18:56:21 19:01:41 48° 260° (W) 19:07:04 137.9125
CINEMA 3 05 Dec 19:01:11 19:06:08 76° 74° (ENE) 19:11:11 145.822/145.860
GOMX 1 05 Dec 19:07:11 19:09:51 15° 274° (W) 19:12:36 467.674
ZACube-1 05 Dec 19:14:22 19:16:49 15° 59° (ENE) 19:19:15 437.345
CUTE 1.7 + AOD 2 05 Dec 19:17:08 19:21:18 66° 74° (ENE) 19:25:30 437.475
NOAA 15 05 Dec 19:17:27 19:21:14 20° 269° (W) 19:25:03 137.62
DOVE 4 05 Dec 19:18:06 19:22:07 26° 269° (W) 19:26:20 437.250
Cubesat XI-IV 05 Dec 19:18:31 19:22:40 23° 269° (W) 19:26:52 437.490
CUBESAT XI-V 05 Dec 19:21:13 19:24:12 17° 301° (WNW) 19:27:11 437.345
FUNcube-1 05 Dec 19:22:03 19:24:44 16° 60° (ENE) 19:27:24 145.935
CUBEBUG 2 05 Dec 19:22:49 19:27:10 37° 68° (ENE) 19:31:30 437.445
Cosmos 2491 05 Dec 19:28:10 19:36:36 56° 270° (W) 19:45:00 435.465 / 435.565
Cosmos 2504 05 Dec 19:28:32 19:35:51 34° 82° (E) 19:43:28 435.465 / 435.565
STRAND 1 05 Dec 19:31:24 19:36:05 36° 97° (E) 19:40:45 437.568
CANX-2 05 Dec 19:35:03 19:39:16 71° 258° (WSW) 19:43:29 2200.000
AAUSAT CUBESAT 2 05 Dec 19:43:00 19:46:55 46° 71° (ENE) 19:50:52 437.432
Oscar 11 05 Dec 19:52:08 19:55:43 26° 65° (ENE) 19:59:19 145.826/435.025
RS-15 05 Dec 19:58:28 20:04:22 15° 268° (W) 20:10:12 29.354- 29.394
YUBILEINY 05 Dec 19:59:07 20:07:50 88° 99° (E) 20:16:40 435.215
SEEDS 05 Dec 20:01:27 20:05:34 62° 259° (W) 20:09:43 437.485
UWE-3 05 Dec 20:05:53 20:10:30 62° 73° (ENE) 20:15:03 435.000/436.395/437.385
CUSAT 1 05 Dec 20:11:33 20:14:39 32° 75° (ENE) 20:18:32 437.405
COMPASS 1 05 Dec 20:12:38 20:16:45 68° 258° (WSW) 20:20:53 437.405
ISS 05 Dec 20:21:01 20:24:14 46° 1° (N) 20:27:27 145.825
AIST 1 05 Dec 20:21:06 20:25:23 66° 96° (E) 20:29:43
HO-68 05 Dec 20:21:30 20:28:12 41° 263° (W) 20:34:57 435.675
PCSat 05 Dec 20:38:49 20:44:16 72° 53° (NE) 20:49:41 145.827
CINEMA 3 05 Dec 20:40:46 20:43:50 16° 273° (W) 20:46:55 145.822/145.860
HUMSAT D 05 Dec 20:44:55 20:47:58 20° 63° (ENE) 20:51:00 437.325/437.525
DELFI C3 05 Dec 20:45:23 20:48:52 31° 68° (ENE) 20:52:23 145.870
SO-50 05 Dec 20:45:45 20:50:18 47° 121° (ESE) 20:54:49 436.795
PRISM 05 Dec 20:46:31 20:48:42 14° 90° (E) 20:50:53 437.425
ZACube-1 05 Dec 20:47:57 20:52:31 82° 257° (WSW) 20:57:01 437.345
DANDE 05 Dec 20:54:41 20:56:38 17° 72° (ENE) 20:58:45 436.750
CUTE 1.7 + AOD 2 05 Dec 20:55:26 20:57:36 14° 272° (W) 20:59:47 437.475
FUNcube-1 05 Dec 20:55:55 21:00:27 74° 257° (WSW) 21:04:56 145.935
CUBEBUG 2 05 Dec 20:59:38 21:03:49 30° 265° (W) 21:07:59 437.445
STRAND 1 05 Dec 21:10:39 21:15:15 35° 295° (WNW) 21:19:51 437.568
AAUSAT CUBESAT 2 05 Dec 21:19:43 21:22:39 19° 269° (W) 21:25:34 437.432
Cosmos 2504 05 Dec 21:20:20 21:28:42 64° 285° (WNW) 21:37:32 435.465 / 435.565
Oscar 11 05 Dec 21:27:43 21:31:43 36° 263° (W) 21:35:44 145.826/435.025
Cosmos 2491 05 Dec 21:28:44 21:31:21 12° 292° (WNW) 21:33:57 435.465 / 435.565
TIGRISAT 05 Dec 21:42:43 21:44:43 13° 87° (E) 21:46:41 435.000
ANTELSAT 05 Dec 21:43:50 21:46:09 14° 88° (E) 21:48:26 437.575/2403.000
UWE-3 05 Dec 21:44:13 21:47:20 17° 270° (W) 21:50:25 435.000/436.395/437.385
ESTCUBE 1 05 Dec 21:53:02 21:56:06 18° 60° (ENE) 21:59:10 437.505/2401.250
CUSAT 1 05 Dec 21:53:51 21:56:28 19° 265° (W) 21:59:33 437.405
ISS 05 Dec 21:57:38 22:00:58 84° 22° (NNE) 22:04:17 145.825
YUBILEINY 05 Dec 21:59:05 22:05:56 25° 302° (WNW) 22:12:52 435.215
AIST 1 05 Dec 22:01:00 22:03:30 15° 296° (WNW) 22:06:01
AISAT 05 Dec 22:02:46 22:04:12 11° 55° (NE) 22:05:39 437.250
HUMSAT D 05 Dec 22:19:12 22:23:17 48° 261° (W) 22:27:21 437.325/437.525
PRISM 05 Dec 22:20:18 22:24:25 65° 288° (WNW) 22:28:33 437.425
DELFI C3 05 Dec 22:20:30 22:23:44 24° 266° (W) 22:27:01 145.870
PCSat 05 Dec 22:23:08 22:27:08 21° 253° (WSW) 22:31:06 145.827
SO-50 05 Dec 22:26:36 22:30:56 34° 321° (NW) 22:35:12 436.795
CUBEBUG 1 05 Dec 22:27:11 22:30:39 23° 63° (ENE) 22:34:09 437.445
ZACube-1 05 Dec 22:29:05 22:29:29 10° 274° (W) 22:29:53 437.345
DANDE 05 Dec 22:37:18 22:39:15 17° 265° (W) 22:41:21 436.750
VELOX 1 05 Dec 22:37:24 22:40:46 22° 62° (ENE) 22:44:09 145.980
UNISAT 6 05 Dec 22:47:26 22:51:51 59° 101° (E) 22:56:07 437.425
DX 1 05 Dec 22:52:09 22:55:04 18° 60° (ENE) 22:57:59 434.975-435.025
UKube-1 05 Dec 23:00:04 23:02:45 16° 59° (ENE) 23:05:26 .
SPROUT 05 Dec 23:11:59 23:15:43 29° 66° (ENE) 23:19:27 437.525
TIGRISAT 05 Dec 23:17:33 23:22:00 76° 286° (WNW) 23:26:19 435.000
Cosmos 2504 05 Dec 23:18:48 23:24:12 18° 310° (NW) 23:29:46 435.465 / 435.565
ANTELSAT 05 Dec 23:18:58 23:23:24 70° 287° (WNW) 23:27:42 437.575/2403.000
JAS-2 05 Dec 23:22:13 23:26:39 28° 94° (E) 23:31:10 435.910
ESTCUBE 1 05 Dec 23:28:03 23:32:29 61° 259° (W) 23:36:56 437.505/2401.250
NANOSAT C BR1 05 Dec 23:28:52 23:31:53 19° 91° (E) 23:34:52 145.865
QB50P2 05 Dec 23:34:09 23:37:38 24° 93° (E) 23:41:04 145.880/145.840
ISS 05 Dec 23:34:32 23:37:11 22° 219° (SW) 23:39:49 145.825
POLYITAN 1 05 Dec 23:34:45 23:38:09 23° 93° (E) 23:41:31 437.675
AISAT 05 Dec 23:35:28 23:39:54 77° 73° (ENE) 23:44:22 437.250
50 SAT 05 Dec 23:42:01 23:45:31 70° 74° (ENE) 23:49:02 437.505
QB50P1 05 Dec 23:47:37 23:51:23 30° 96° (E) 23:55:08 145.935-145.965
DUCHIFAT 1 05 Dec 23:50:44 23:54:25 28° 95° (E) 23:58:02 145.980
CUBEBUG 1 06 Dec 00:02:33 00:06:42 43° 262° (W) 00:10:55 437.445
POPSAT HIP 1 06 Dec 00:08:53 00:13:02 48° 99° (E) 00:17:07 437.405
SO-50 06 Dec 00:10:32 00:12:46 13° 344° (NNW) 00:14:59 436.795
VELOX 1 06 Dec 00:12:39 00:16:55 49° 260° (W) 00:21:15 145.980
M-CUBED/EXP-1 PRIME 06 Dec 00:19:12 00:21:27 14° 50° (NE) 00:23:47 437.505
Cosmos 2499 06 Dec 00:21:08 00:28:55 40° 84° (E) 00:36:55 435.465 / 435.565
UNISAT 6 06 Dec 00:25:06 00:28:08 18° 300° (WNW) 00:31:07 437.425
SWISSCUBE 06 Dec 00:25:35 00:26:43 11° 52° (NE) 00:27:49 437.505
DX 1 06 Dec 00:26:31 00:30:49 61° 258° (WSW) 00:35:10 434.975-435.025
BEESAT 06 Dec 00:29:46 00:30:46 11° 52° (NE) 00:31:47 436.000
UKube-1 06 Dec 00:34:00 00:38:18 67° 258° (WSW) 00:42:38 .
TISAT 1 06 Dec 00:34:19 00:38:14 37° 68° (ENE) 00:42:11 437.305
GONETS M04 06 Dec 00:37:15 00:45:18 44° 87° (E) 00:53:20
SPROUT 06 Dec 00:47:41 00:51:34 32° 264° (W) 00:55:29 437.525
BUGSAT 1 06 Dec 00:48:17 00:52:20 44° 99° (E) 00:56:19 437.445
ITUPSAT 1 06 Dec 00:54:55 00:57:59 17° 58° (ENE) 01:01:03 437.325
TIGRISAT 06 Dec 00:56:42 00:57:52 11° 305° (NW) 00:59:02 435.000
ANTELSAT 06 Dec 00:58:48 00:59:15 10° 306° (NW) 00:59:41 437.575/2403.000
NANOSAT C BR1 06 Dec 01:03:47 01:07:53 48° 290° (WNW) 01:11:56 145.865
JAS-2 06 Dec 01:07:06 01:12:00 43° 293° (WNW) 01:16:59 435.910
QB50P2 06 Dec 01:09:35 01:13:33 38° 292° (WNW) 01:17:28 145.880/145.840
POLYITAN 1 06 Dec 01:10:07 01:14:06 39° 291° (WNW) 01:18:02 437.675
AISAT 06 Dec 01:14:50 01:16:56 13° 272° (W) 01:19:00 437.250
QB50P1 06 Dec 01:23:24 01:27:08 30° 294° (WNW) 01:30:50 145.935-145.965
DUCHIFAT 1 06 Dec 01:26:20 01:30:06 32° 293° (WNW) 01:33:51 145.980
MOZHAYETS 4 06 Dec 01:36:56 01:38:01 11° 54° (NE) 01:39:07
O/OREOS (USA 219) 06 Dec 01:37:58 01:42:20 49° 59° (ENE) 01:46:41 437.305
Gurwin Techsat 1B 06 Dec 01:38:38 01:42:37 21° 91° (E) 01:46:33 435.225
AUBIESAT-1 06 Dec 01:38:56 01:43:03 55° 65° (ENE) 01:47:27 437.475
Oscar 19 06 Dec 01:43:06 01:48:00 40° 97° (E) 01:52:52 437.125/150
PHONESAT 2.4 06 Dec 01:45:18 01:45:59 11° 165° (SSE) 01:46:40 2401.200-2431.200
POPSAT HIP 1 06 Dec 01:45:22 01:48:30 20° 298° (WNW) 01:51:37 437.405
M-CUBED/EXP-1 PRIME 06 Dec 01:51:00 01:55:10 86° 71° (ENE) 01:59:42 437.505
SO-50 06 Dec 01:53:41 01:55:16 11° 9° (N) 01:56:50 436.795
SWISSCUBE 06 Dec 01:58:52 02:03:35 65° 72° (ENE) 02:08:19 437.505
BEESAT 06 Dec 02:02:56 02:07:38 64° 71° (ENE) 02:12:23 436.000
KKS-1 06 Dec 02:08:53 02:09:08 10° 53° (NE) 02:09:22 437.445
TISAT 1 06 Dec 02:10:28 02:13:58 25° 266° (W) 02:17:30 437.305
Cosmos 2499 06 Dec 02:13:16 02:21:44 57° 287° (WNW) 02:30:32 435.465 / 435.565
BUGSAT 1 06 Dec 02:24:14 02:27:26 21° 297° (WNW) 02:30:37 437.445
AO-85 06 Dec 02:29:05 02:33:39 41° 120° (ESE) 02:37:55 145.980
ITUPSAT 1 06 Dec 02:30:29 02:35:16 76° 257° (WSW) 02:40:04 437.325
GONETS M04 06 Dec 02:33:40 02:42:03 50° 289° (WNW) 02:50:27
MOZHAYETS 4 06 Dec 03:09:47 03:14:21 70° 73° (ENE) 03:18:56
CUBESAT XI-V 06 Dec 03:14:34 03:17:13 15° 58° (ENE) 03:19:52 437.345
AUBIESAT-1 06 Dec 03:14:49 03:17:49 19° 265° (W) 03:20:57 437.475
Gurwin Techsat 1B 06 Dec 03:17:44 03:23:00 63° 289° (WNW) 03:28:14 435.225
O/OREOS (USA 219) 06 Dec 03:18:02 03:21:25 21° 258° (WSW) 03:24:46 437.305
PHONESAT 2.4 06 Dec 03:18:55 03:20:35 15° 181° (S) 03:22:15 2401.200-2431.200
Oscar 19 06 Dec 03:22:38 03:27:13 33° 296° (WNW) 03:31:49 437.125/150
M-CUBED/EXP-1 PRIME 06 Dec 03:28:46 03:30:20 12° 269° (W) 03:31:57 437.505
SO-50 06 Dec 03:33:32 03:37:21 25° 33° (NNE) 03:41:06 436.795
SWISSCUBE 06 Dec 03:38:39 03:41:50 17° 270° (W) 03:45:00 437.505
AO-7 06 Dec 03:39:06 03:46:46 38° 97° (E) 03:54:23 29.400- 29.500
KKS-1 06 Dec 03:40:23 03:44:49 66° 72° (ENE) 03:49:17 437.445
BEESAT 06 Dec 03:42:39 03:45:52 18° 270° (W) 03:49:05 436.000
STARS 06 Dec 03:46:49 03:50:55 38° 68° (ENE) 03:55:03 437.465
ITAMSAT 1 06 Dec 03:50:22 03:55:33 67° 103° (ESE) 04:00:42 435.822/435.867
YUBILEINY 06 Dec 04:09:30 04:14:00 15° 47° (NE) 04:18:29 435.215
AO-85 06 Dec 04:09:46 04:14:09 36° 318° (NW) 04:18:15 145.980
Cosmos 2499 06 Dec 04:12:14 04:17:13 16° 312° (NW) 04:22:15 435.465 / 435.565
BRITE-PL 06 Dec 04:13:32 04:14:06 10° 83° (E) 04:14:41 437.365/2234.400
GONETS M04 06 Dec 04:38:02 04:41:34 13° 316° (NW) 04:45:06
HORYU 2 06 Dec 04:44:48 04:45:39 10° 87° (E) 04:46:32 437.375
MOZHAYETS 4 06 Dec 04:49:21 04:52:00 15° 271° (W) 04:54:39
CUBESAT XI-V 06 Dec 04:49:25 04:54:00 79° 258° (WSW) 04:58:38 437.345
Gurwin Techsat 1B 06 Dec 04:59:57 05:01:57 12° 309° (NW) 05:03:57 435.225
SO-50 06 Dec 05:13:42 05:18:15 70° 235° (SW) 05:22:42 436.795
STRAND 1 06 Dec 05:15:07 05:17:32 13° 53° (NE) 05:19:58 437.568
Cosmos 2504 06 Dec 05:16:11 05:21:53 18° 51° (NE) 05:27:26 435.465 / 435.565
BEESAT 3 06 Dec 05:17:03 05:20:25 28° 117° (ESE) 05:23:49 437.485
KKS-1 06 Dec 05:19:08 05:21:50 16° 270° (W) 05:24:33 437.445
STARS 06 Dec 05:23:39 05:27:22 26° 266° (W) 05:31:07 437.465
GOMX 1 06 Dec 05:24:39 05:28:45 21° 89° (E) 05:32:51 467.674
CUTE-I 06 Dec 05:27:44 05:28:27 10° 84° (E) 05:29:10 437.470
ITAMSAT 1 06 Dec 05:30:43 05:34:33 21° 302° (WNW) 05:38:21 435.822/435.867
AO-7 06 Dec 05:31:44 05:39:55 60° 298° (WNW) 05:48:05 29.400- 29.500
DOVE 4 06 Dec 05:36:44 05:38:33 12° 83° (E) 05:40:20 437.250
BEESAT 2 06 Dec 05:46:19 05:49:40 27° 117° (ESE) 05:53:03 435.950
NOAA 15 06 Dec 05:48:02 05:51:36 18° 90° (E) 05:55:08 137.62
BRITE-PL 06 Dec 05:48:07 05:53:28 65° 101° (E) 05:59:04 437.365/2234.400
Cubesat XI-IV 06 Dec 05:51:21 05:54:53 18° 89° (E) 05:58:22 437.490
AO-85 06 Dec 05:53:57 05:55:46 12° 340° (NNW) 05:57:32 145.980
RS-15 06 Dec 06:03:28 06:10:28 18° 94° (E) 06:17:36 29.354- 29.394
YUBILEINY 06 Dec 06:04:37 06:13:17 55° 73° (ENE) 06:21:54 435.215
HORYU 2 06 Dec 06:18:26 06:22:54 87° 101° (E) 06:27:20 437.375
AIST 1 06 Dec 06:24:27 06:28:09 25° 70° (ENE) 06:31:49
Cosmos 2491 06 Dec 06:37:44 06:45:33 38° 84° (E) 06:53:22 435.465 / 435.565
STRAND 1 06 Dec 06:50:45 06:55:52 74° 73° (ENE) 07:01:01 437.568
CINEMA 3 06 Dec 06:53:47 06:56:34 15° 87° (E) 06:59:16 145.822/145.860
BEESAT 3 06 Dec 06:54:15 06:57:56 38° 317° (NW) 07:01:40 437.485
GOMX 1 06 Dec 07:01:50 07:07:15 67° 287° (WNW) 07:12:42 467.674
CUTE-I 06 Dec 07:04:08 07:09:30 70° 103° (ESE) 07:14:47 437.470
LilacSat-2 06 Dec 07:06:10 07:09:58 85° 289° (WNW) 07:13:45 437.200
Cosmos 2504 06 Dec 07:08:28 07:17:19 66° 76° (ENE) 07:25:42 435.465 / 435.565
DOVE 4 06 Dec 07:11:46 07:17:08 76° 102° (ESE) 07:22:20 437.250
NOAA 18 06 Dec 07:14:14 07:19:42 54° 101° (E) 07:25:05 137.9125
CANX-2 06 Dec 07:17:20 07:19:54 16° 90° (E) 07:22:27 2200.000
BEESAT 2 06 Dec 07:23:34 07:27:19 40° 316° (NW) 07:31:08 435.950
AO-7 06 Dec 07:25:46 07:31:06 19° 321° (NW) 07:36:25 29.400- 29.500
NOAA 15 06 Dec 07:26:39 07:31:55 73° 288° (WNW) 07:37:11 137.62
BRITE-PL 06 Dec 07:27:24 07:31:32 24° 298° (WNW) 07:35:51 437.365/2234.400
Cubesat XI-IV 06 Dec 07:30:11 07:35:33 75° 288° (WNW) 07:40:52 437.490
PRISM 06 Dec 07:39:20 07:42:03 17° 61° (ENE) 07:44:47 437.425
SEEDS 06 Dec 07:42:19 07:45:04 17° 90° (E) 07:47:49 437.485
HO-68 06 Dec 07:44:30 07:50:58 34° 95° (E) 07:57:24 435.675
COMPASS 1 06 Dec 07:52:44 07:55:07 15° 89° (E) 07:57:31 437.405
HORYU 2 06 Dec 07:56:38 07:58:48 14° 304° (WNW) 08:00:58 437.375
AIST 1 06 Dec 08:01:47 08:05:51 36° 269° (W) 08:09:52
YUBILEINY 06 Dec 08:01:52 08:09:49 40° 275° (W) 08:17:47 435.215
RS-15 06 Dec 08:08:45 08:20:21 67° 118° (ESE) 08:32:30 29.354- 29.394
AIST 2 06 Dec 08:14:43 08:18:11 26° 116° (ESE) 08:21:41 435.215
UNISAT 6 06 Dec 08:15:55 08:17:55 13° 56° (NE) 08:19:53 437.425
CINEMA 3 06 Dec 08:29:26 08:34:19 75° 286° (WNW) 08:38:58 145.822/145.860
STRAND 1 06 Dec 08:32:21 08:35:36 17° 271° (W) 08:38:54 437.568
Cosmos 2491 06 Dec 08:33:29 08:42:05 57° 287° (WNW) 08:50:42 435.465 / 435.565
CUTE 1.7 + AOD 2 06 Dec 08:33:49 08:38:03 80° 102° (ESE) 08:42:17 437.475
ZACube-1 06 Dec 08:34:01 08:36:22 14° 88° (E) 08:38:42 437.345
BEESAT 3 06 Dec 08:35:23 08:36:39 11° 339° (NNW) 08:37:55 437.485
FUNcube-1 06 Dec 08:41:24 08:44:01 16° 89° (E) 08:46:35 145.935
GOMX 1 06 Dec 08:41:52 08:44:22 13° 306° (NW) 08:46:53 467.674
TIGRISAT 06 Dec 08:44:07 08:47:34 21° 61° (ENE) 08:50:58 435.000
CUTE-I 06 Dec 08:45:07 08:49:02 21° 302° (WNW) 08:52:57 437.470
ANTELSAT 06 Dec 08:45:28 08:49:03 22° 62° (ENE) 08:52:36 437.575/2403.000
CUBEBUG 2 06 Dec 08:46:15 08:50:33 46° 98° (E) 08:54:40 437.445
DOVE 4 06 Dec 08:50:28 08:54:13 20° 301° (WNW) 08:57:55 437.250
CANX-2 06 Dec 08:51:59 08:56:08 58° 287° (WNW) 09:00:16 2200.000
NOAA 18 06 Dec 08:55:26 09:00:04 28° 300° (WNW) 09:04:40 137.9125
AAUSAT CUBESAT 2 06 Dec 08:56:29 09:00:32 51° 100° (E) 09:04:34 437.432
Cosmos 2504 06 Dec 09:02:35 09:10:07 33° 278° (W) 09:17:21 435.465 / 435.565
BEESAT 2 06 Dec 09:04:42 09:06:11 12° 338° (NNW) 09:07:41 435.950
NOAA 15 06 Dec 09:08:17 09:10:49 14° 308° (NW) 09:13:21 137.62
Oscar 11 06 Dec 09:10:54 09:14:44 30° 95° (E) 09:18:31 145.826/435.025
Cubesat XI-IV 06 Dec 09:12:00 09:14:45 14° 307° (NW) 09:17:29 437.490
PRISM 06 Dec 09:12:58 09:16:58 54° 259° (W) 09:21:00 437.425
SEEDS 06 Dec 09:17:00 09:21:05 53° 288° (WNW) 09:25:09 437.485
AO-85 06 Dec 09:17:19 09:20:18 19° 31° (NNE) 09:23:11 145.980
CUSAT 1 06 Dec 09:20:04 09:22:06 17° 95° (E) 09:23:59 437.405
COMPASS 1 06 Dec 09:26:58 09:31:04 60° 287° (WNW) 09:35:10 437.405
UWE-3 06 Dec 09:28:14 09:32:37 80° 103° (ESE) 09:36:51 435.000/436.395/437.385
HO-68 06 Dec 09:31:59 09:39:00 57° 295° (WNW) 09:46:00 435.675
JAS-2 06 Dec 09:39:08 09:43:44 23° 60° (ENE) 09:48:01 435.910
UNISAT 6 06 Dec 09:49:12 09:53:53 81° 76° (ENE) 09:58:33 437.425
AIST 2 06 Dec 09:52:32 09:56:29 43° 316° (NW) 10:00:31 435.215
DELFI C3 06 Dec 09:53:15 09:56:49 30° 96° (E) 10:00:22 145.870
HUMSAT D 06 Dec 09:59:15 10:02:16 20° 92° (E) 10:05:17 437.325/437.525
DANDE 06 Dec 10:07:06 10:10:28 22° 96° (E) 10:13:14 436.750
Cosmos 2499 06 Dec 10:08:00 10:13:59 20° 53° (NE) 10:19:42 435.465 / 435.565
CINEMA 3 06 Dec 10:08:36 10:10:32 12° 306° (NW) 10:12:28 145.822/145.860
ZACube-1 06 Dec 10:08:54 10:13:08 62° 287° (WNW) 10:17:15 437.345
CUTE 1.7 + AOD 2 06 Dec 10:11:18 10:13:19 13° 301° (WNW) 10:15:20 437.475
FUNcube-1 06 Dec 10:16:29 10:20:40 56° 288° (WNW) 10:24:44 145.935
TIGRISAT 06 Dec 10:19:15 10:23:52 57° 259° (W) 10:28:28 435.000
ANTELSAT 06 Dec 10:20:52 10:25:26 53° 261° (W) 10:29:59 437.575/2403.000
RS-15 06 Dec 10:21:45 10:33:28 54° 326° (NW) 10:45:37 29.354- 29.394
CUBEBUG 2 06 Dec 10:23:27 10:26:53 22° 298° (WNW) 10:30:12 437.445
NANOSAT C BR1 06 Dec 10:24:19 10:27:43 24° 64° (ENE) 10:31:08 145.865
QB50P2 06 Dec 10:30:04 10:33:47 30° 66° (ENE) 10:37:33 145.880/145.840
POLYITAN 1 06 Dec 10:30:39 10:34:20 29° 66° (ENE) 10:38:02 437.675
AAUSAT CUBESAT 2 06 Dec 10:32:47 10:35:40 18° 298° (WNW) 10:38:32 437.432
Cosmos 2491 06 Dec 10:36:44 10:41:19 15° 313° (NW) 10:45:54 435.465 / 435.565
GONETS M04 06 Dec 10:42:16 10:49:28 28° 60° (ENE) 10:56:38
QB50P1 06 Dec 10:43:16 10:47:13 37° 68° (ENE) 10:51:10 145.935-145.965
DUCHIFAT 1 06 Dec 10:45:48 10:49:40 34° 67° (ENE) 10:53:32 145.980
Oscar 11 06 Dec 10:47:03 10:50:51 31° 293° (WNW) 10:54:37 145.826/435.025
AO-85 06 Dec 10:57:13 11:01:15 83° 236° (SW) 11:05:09 145.980
CUSAT 1 06 Dec 11:01:59 11:03:55 16° 289° (WNW) 11:05:44 437.405
POPSAT HIP 1 06 Dec 11:04:29 11:08:42 59° 72° (ENE) 11:12:57 437.405
UWE-3 06 Dec 11:06:17 11:08:27 14° 302° (WNW) 11:10:35 435.000/436.395/437.385
ESTCUBE 1 06 Dec 11:17:11 11:20:40 22° 92° (E) 11:24:09 437.505/2401.250
HO-68 06 Dec 11:21:26 11:25:17 15° 317° (NW) 11:29:09 435.675
JAS-2 06 Dec 11:22:06 11:28:27 71° 257° (WSW) 11:34:07 435.910
AISAT 06 Dec 11:24:01 11:25:26 11° 87° (E) 11:26:52 437.250
PCSat 06 Dec 11:24:45 11:29:21 29° 111° (ESE) 11:33:59 145.827
Oscar 19 06 Dec 11:27:19 11:30:08 15° 54° (NE) 11:32:59 437.125/150
DELFI C3 06 Dec 11:28:12 11:31:33 26° 294° (WNW) 11:34:54 145.870
UNISAT 6 06 Dec 11:28:50 11:31:10 14° 272° (W) 11:33:29 437.425
AIST 2 06 Dec 11:34:05 11:36:02 13° 338° (NNW) 11:38:00 435.215
HUMSAT D 06 Dec 11:34:14 11:38:06 42° 290° (WNW) 11:41:56 437.325/437.525
BUGSAT 1 06 Dec 11:41:04 11:45:11 51° 70° (ENE) 11:49:19 437.445
CUBEBUG 1 06 Dec 11:47:20 11:51:06 26° 94° (E) 11:54:51 437.445
DANDE 06 Dec 11:49:33 11:53:05 26° 286° (WNW) 11:55:58 436.750
BEESAT 3 06 Dec 11:53:17 11:55:33 14° 27° (NNE) 11:57:47 437.485
VELOX 1 06 Dec 11:59:07 12:02:46 24° 93° (E) 12:06:23 145.980
NANOSAT C BR1 06 Dec 11:59:12 12:03:14 41° 262° (W) 12:07:18 145.865
Cosmos 2499 06 Dec 12:00:12 12:08:57 73° 78° (ENE) 12:17:03 435.465 / 435.565
QB50P2 06 Dec 12:05:42 12:09:33 31° 264° (W) 12:13:24 145.880/145.840
POLYITAN 1 06 Dec 12:06:09 12:10:03 33° 264° (W) 12:13:58 437.675
DX 1 06 Dec 12:11:43 12:14:42 18° 91° (E) 12:17:40 434.975-435.025
UKube-1 06 Dec 12:18:23 12:21:00 15° 90° (E) 12:23:36 .
QB50P1 06 Dec 12:19:31 12:23:04 25° 266° (W) 12:26:39 145.935-145.965
DUCHIFAT 1 06 Dec 12:21:45 12:25:23 27° 265° (W) 12:29:03 145.980
BEESAT 2 06 Dec 12:23:10 12:25:26 14° 27° (NNE) 12:27:41 435.950
SPROUT 06 Dec 12:29:21 12:33:14 32° 96° (E) 12:37:04 437.525
50 SAT 06 Dec 12:37:37 12:41:04 46° 100° (E) 12:44:31 437.505
RS-15 06 Dec 12:38:18 12:49:25 37° 359° (N) 13:00:36 29.354- 29.394
GONETS M04 06 Dec 12:38:37 12:47:22 81° 263° (W) 12:56:05
POPSAT HIP 1 06 Dec 12:42:11 12:44:52 16° 270° (W) 12:47:34 437.405
AO-7 06 Dec 12:52:53 12:58:42 22° 42° (NE) 13:04:31 29.400- 29.500
ESTCUBE 1 06 Dec 12:53:22 12:57:43 47° 290° (WNW) 13:02:03 437.505/2401.250
AISAT 06 Dec 12:58:02 13:02:34 89° 281° (WNW) 13:07:02 437.250
Gurwin Techsat 1B 06 Dec 13:03:02 13:08:06 47° 67° (ENE) 13:13:11 435.225
Oscar 19 06 Dec 13:03:34 13:08:41 84° 76° (ENE) 13:13:53 437.125/150
PCSat 06 Dec 13:07:11 13:12:29 54° 311° (NW) 13:17:50 145.827
JAS-2 06 Dec 13:12:22 13:14:23 12° 274° (W) 13:16:20 435.910
BUGSAT 1 06 Dec 13:17:52 13:20:50 18° 269° (W) 13:23:49 437.445
CUBEBUG 1 06 Dec 13:23:22 13:27:28 37° 292° (WNW) 13:31:33 437.445
BEESAT 3 06 Dec 13:30:00 13:33:58 60° 48° (NE) 13:37:55 437.485
ITAMSAT 1 06 Dec 13:34:04 13:38:14 25° 60° (ENE) 13:42:24 435.822/435.867
VELOX 1 06 Dec 13:35:10 13:39:24 42° 291° (WNW) 13:43:35 145.980
DX 1 06 Dec 13:46:55 13:51:14 56° 289° (WNW) 13:55:31 434.975-435.025
TISAT 1 06 Dec 13:49:39 13:53:38 38° 98° (E) 13:57:33 437.305
UKube-1 06 Dec 13:53:09 13:57:27 63° 288° (WNW) 14:01:44 .
Cosmos 2499 06 Dec 13:54:15 14:01:14 29° 280° (W) 14:07:53 435.465 / 435.565
SWISSCUBE 06 Dec 13:57:12 13:59:04 12° 87° (E) 14:00:56 437.505
BEESAT 2 06 Dec 14:00:03 14:04:03 58° 48° (NE) 14:08:02 435.950
BEESAT 06 Dec 14:01:16 14:03:03 12° 87° (E) 14:04:50 436.000
SPROUT 06 Dec 14:05:21 14:09:06 29° 294° (WNW) 14:12:48 437.525
50 SAT 06 Dec 14:11:53 14:14:02 15° 297° (WNW) 14:16:11 437.505
ITUPSAT 1 06 Dec 14:27:48 14:31:25 21° 92° (E) 14:35:00 437.325
AISAT 06 Dec 14:36:15 14:38:20 13° 304° (WNW) 14:40:25 437.250
GONETS M04 06 Dec 14:37:13 14:42:45 19° 286° (WNW) 14:48:19
AO-7 06 Dec 14:41:53 14:50:06 70° 65° (ENE) 14:58:23 29.400- 29.500
Gurwin Techsat 1B 06 Dec 14:43:42 14:48:15 28° 266° (W) 14:52:49 435.225
Oscar 19 06 Dec 14:45:52 14:48:42 15° 272° (W) 14:51:34 437.125/150
AUBIESAT-1 06 Dec 14:48:26 14:52:12 24° 98° (E) 14:55:50 437.475
RS-15 06 Dec 14:53:27 15:05:29 51° 32° (NNE) 15:17:19 29.354- 29.394
PCSat 06 Dec 14:53:39 14:57:07 17° 334° (NNW) 15:00:37 145.827
AIST 2 06 Dec 14:54:08 14:56:42 15° 27° (NNE) 14:59:15 435.215
M-CUBED/EXP-1 PRIME 06 Dec 15:00:44 15:05:07 38° 102° (ESE) 15:09:22 437.505
MOZHAYETS 4 06 Dec 15:02:48 15:04:44 12° 87° (E) 15:06:39
BEESAT 3 06 Dec 15:08:32 15:11:12 17° 247° (WSW) 15:13:51 437.485
ITAMSAT 1 06 Dec 15:12:14 15:17:22 56° 259° (W) 15:22:31 435.822/435.867
TISAT 1 06 Dec 15:25:38 15:29:06 25° 296° (WNW) 15:32:31 437.305
BRITE-PL 06 Dec 15:27:19 15:29:46 15° 56° (NE) 15:32:17 437.365/2234.400
SWISSCUBE 06 Dec 15:32:46 15:37:33 90° 332° (NNW) 15:42:18 437.505
BEESAT 06 Dec 15:36:45 15:41:32 89° 100° (E) 15:46:18 436.000
BEESAT 2 06 Dec 15:38:39 15:41:28 18° 247° (WSW) 15:44:16 435.950
HORYU 2 06 Dec 15:45:06 15:48:05 18° 60° (ENE) 15:51:06 437.375
O/OREOS (USA 219) 06 Dec 15:54:26 15:58:15 27° 105° (ESE) 16:02:06 437.305
ITUPSAT 1 06 Dec 16:04:55 16:09:34 53° 290° (WNW) 16:14:11 437.325
ISS 06 Dec 16:17:19 16:19:26 16° 137° (SE) 16:21:33 145.825
AUBIESAT-1 06 Dec 16:22:21 16:26:47 46° 297° (WNW) 16:31:05 437.475
AIST 2 06 Dec 16:31:50 16:36:02 60° 49° (NE) 16:40:13 435.215
M-CUBED/EXP-1 PRIME 06 Dec 16:35:18 16:39:28 32° 301° (WNW) 16:43:32 437.505
AO-7 06 Dec 16:36:21 16:43:30 32° 266° (W) 16:50:44 29.400- 29.500
HO-68 06 Dec 16:36:27 16:37:48 11° 36° (NE) 16:39:10 435.675
GOMX 1 06 Dec 16:36:27 16:40:27 28° 63° (ENE) 16:44:42 467.674
MOZHAYETS 4 06 Dec 16:37:55 16:42:31 83° 285° (WNW) 16:47:04
PCSat 06 Dec 16:41:56 16:42:57 10° 0° (N) 16:43:57 145.827
Cosmos 2491 06 Dec 16:42:41 16:49:28 24° 58° (ENE) 16:56:12 435.465 / 435.565
CUBESAT XI-V 06 Dec 16:42:44 16:46:11 20° 91° (E) 16:49:38 437.345
DOVE 4 06 Dec 16:44:57 16:48:14 18° 57° (ENE) 16:51:37 437.250
CUTE-I 06 Dec 16:51:02 16:55:29 27° 61° (ENE) 16:59:56 437.470
BRITE-PL 06 Dec 17:03:10 17:07:31 82° 256° (WSW) 17:12:15 437.365/2234.400
KKS-1 06 Dec 17:03:52 17:08:24 78° 104° (ESE) 17:12:52 437.445
NOAA 18 06 Dec 17:05:13 17:09:43 26° 59° (ENE) 17:14:15 137.9125
